Flag Weather past 2 weeks in Greifswald, Mecklenburg-Western Pomerania, Germany

Now
42 °F

Fog.


Feels Like: 38 °F
Forecast: 41 / 49 °F
Wind: 6 mph from South

Location: Greifswald

Current Time: Nov 23, 2014 at 11:14:07 AM

Latest Report: Nov 23, 2014 at 11:00 AM


Visibility: 3 mi

Pressure: 30.27 "Hg

Humidity: 83%

Dew point: 37 °F

Location of GreifswaldLocation

Historic Weather in Greifswald — Graph

°F

Greifswald temperature yesterday

Maximum temperature yesterday: 42 °F (at 3:00 PM)
Minimum temperature yesterday: 33 °F (at 9:00 AM)
Average temperature yesterday: 39 °F

Past Weeks' High & Low Weather Summary

 TemperatureHumidityPressure
High53 °F (Nov 8, 3:00 PM)100% (Nov 9, 5:00 AM)30.36 "Hg (Nov 9, 5:00 AM)
Low33 °F (Nov 22, 9:00 AM)71% (Nov 8, 2:00 PM)29.68 "Hg (Nov 16, 3:00 PM)
Average45 °F92%30.01 "Hg
* Reported Nov 8 11:00 AM — Nov 23 10:00 AM, Greifswald, Weather by CustomWeather, © 2014

Note: Actual official high and low records may vary slightly from our data, if they occured in-between our weather recording intervals... More about our weather records

Advertising

Greifswald weather history for previous 24 hours

 ConditionsComfort  
Time TempWeatherWind HumidityBarometerVisibility
10:00 AM
Nov 23
41 °FOvercast.5 mph86%30.27 "Hg3 mi
9:00 AM40 °FFog.6 mph86%30.28 "Hg4 mi
8:00 AM40 °FOvercast.6 mph88%30.28 "Hg4 mi
7:00 AM40 °FOvercast.5 mph88%30.27 "Hg4 mi
6:00 AM40 °FLight rain. Overcast.6 mph90%30.26 "Hg3 mi
5:00 AM40 °FLight rain. Overcast.5 mph86%30.27 "Hg3 mi
3:00 AM40 °FOvercast.5 mph87%30.27 "Hg6 mi
2:00 AM40 °FLight rain. Overcast.3 mph88%30.28 "Hg5 mi
1:00 AM41 °FOvercast.3 mph84%30.28 "Hg6 mi
12:00 AM41 °FLight rain. Overcast.5 mph87%30.27 "Hg6 mi
11:00 PM
Nov 22
41 °FLight rain. Overcast.5 mph87%30.28 "Hg5 mi
9:00 PM42 °FOvercast.5 mph82%30.29 "Hg6 mi
8:00 PM42 °FLight rain. Overcast.3 mph82%30.29 "Hg6 mi
7:00 PM42 °FOvercast.2 mph80%30.31 "Hg9 mi
6:00 PM41 °FOvercast.3 mph79%30.29 "Hg9 mi
5:00 PM40 °FOvercast.3 mph81%30.28 "Hg9 mi
4:00 PM41 °FOvercast.2 mph82%30.29 "Hg7 mi
3:00 PM42 °FOvercast.3 mph79%30.29 "Hg7 mi
2:00 PM42 °FOvercast.5 mph80%30.29 "Hg9 mi
1:00 PM42 °FOvercast.2 mph82%30.30 "Hg8 mi
12:00 PM39 °FOvercast.2 mph89%30.32 "Hg6 mi
11:00 AM36 °FOvercast.2 mph95%30.33 "Hg5 mi
Weather by CustomWeather, © 2014

See weather overviewHow to use our weather pages